Location: Joplin, MO
(37.0842°N, 94.5133°W)
Time: 10:40:57
(UTC+02:00)

Transit 2A - Pass Details

Date: 03 April 2023
Orbit: 591 x 964 km, 66.7° (Epoch: 03 June)

Event Time Altitude Azimuth Distance (km) Brightness Sun altitude
Exits shadow 11:45:49 37° 317° (NW) 1,287 7.0 -26.3°
Drops below altitude 10° 11:50:55 10° 13° (NNE) 2,578 9.2 -25.4°
Sets 11:53:44 0° 22° (NNE) 3,569 10.2 -24.9°
